#timestamp,LO_Frequency,Hit,StdDev 
1617927735.8,286047021.6,P
1617927755.6,286047020.5,P
1617927775.4,286047019.1,P
1617927795.3,286047019.6,Y
1617927815.1,286046998.3,P
1617927835.9,286047001.0,N
1617927855.7,286047000.8,N
1617927875.5,286046999.0,N
1617927895.4,286046998.4,N
1617927915.2,286047000.1,N
1617927935.0,286047000.0,N
1617927936.0,286047000.0,N
1617927955.8,286046999.8,N
1617927975.6,286046998.7,N
1617927995.5,286046999.3,N
1617928015.3,286047000.8,N
1617928035.1,286047000.9,N
1617928055.9,286047001.0,N
1617928075.7,286047001.2,N
1617928095.6,286047000.4,N
1617928115.4,286047000.5,N
1617928135.2,286047001.8,N
1617928155.1,286047003.8,N
1617928156.0,286047003.8,N
1617928175.8,286047004.2,N
1617928195.6,286047004.3,N
1617928215.5,286047001.3,N
1617928235.3,286047003.9,N
1617928255.2,286047003.9,N
1617928275.9,286047003.5,N
1617928295.7,286047003.2,N
1617928315.6,286047004.0,N
1617928335.4,286047001.3,N
1617928385.3,286047002.2,E
1617928395.2,286047002.4,N
1617928415.0,286047001.1,P
1617928415.9,286047001.1,N
1617928435.8,286047000.8,N
1617928455.6,286047000.8,N
1617928475.5,286047002.2,Y
1617928495.3,286047000.3,P
1617928515.1,286047001.1,N
1617928535.9,286046998.2,P
1617928555.7,286047001.2,N
1617928575.5,286046998.9,N
1617928595.4,286047000.7,N
1617928615.2,286047000.9,N
1617928635.0,286047000.7,N
1617928636.0,286047000.7,N
1617928655.8,286047002.6,N
1617928675.6,286047002.4,N
1617928695.5,286047000.5,N
1617928715.3,286047000.0,N
1617928735.1,286047001.8,N
1617928755.9,286047004.3,Y
1617928775.7,286047004.3,P
1617928795.6,286047003.6,N
1617928815.4,286047003.9,N
1617928835.2,286047004.4,Y
1617928855.1,286047001.2,P
1617928856.0,286047001.2,N
1617928875.8,286046998.8,N
1617928895.6,286046999.5,N
1617928915.5,286046999.2,N
1617928935.3,286046996.6,N
1617928955.2,286046998.1,N
1617928975.9,286047000.3,N
1617928995.7,286047000.5,N
1617929015.6,286047002.7,N
1617929035.4,286047000.1,N
1617929055.2,286047000.4,N
1617929075.1,286047002.0,N
1617929076.0,286047002.0,N
1617929095.8,286047002.3,N
1617929115.7,286047001.4,N
1617929135.5,286047001.8,N
1617929155.3,286047005.4,Y
1617929175.2,286047005.6,P
1617929195.0,286047002.9,N
1617929195.9,286047002.9,N
1617929215.8,286047005.2,N
1617929235.6,286047003.3,N
1617929255.4,286047001.6,N
1617929275.3,286047001.9,N
1617929295.1,286047001.4,N
1617929315.8,286047001.9,N
1617929335.7,286047005.9,Y
1617929355.5,286047002.3,P
1617929375.4,286047004.0,P
1617929395.2,286047004.0,P
1617929415.0,286047001.6,N
1617929415.9,286047001.6,N
1617929435.8,286047003.0,N
1617929455.6,286047003.4,Y
1617929475.5,286047001.9,P
1617929495.3,286047002.3,P
1617929515.1,286047000.1,N
1617929535.9,286047000.0,N
1617929555.7,286046998.5,N
1617929575.5,286046999.3,N
1617929595.4,286047000.3,N
1617929615.2,286047000.6,N
1617929635.1,286046998.5,N
1617929636.0,286046998.5,N
1617929655.8,286046999.9,N
1617929675.6,286047000.1,N
1617929695.5,286047001.9,N
1617929715.3,286047002.0,N
1617929735.1,286047003.9,N
1617929755.9,286047001.7,N
1617929775.7,286047002.8,N
1617929795.6,286047001.7,N
1617929815.4,286047005.8,Y
1617929835.2,286047003.4,P
1617929855.1,286047006.0,P
1617929856.0,286047006.0,N
1617929875.8,286047002.9,N
1617929895.6,286047005.7,N
1617929915.5,286047004.9,N
1617929935.3,286047004.6,N
1617929955.2,286047007.9,Y
1617929975.9,286047006.0,P
1617929995.7,286047005.8,P
